FENGYUN 1C DEB

Satellite information

Favourite Embed

Satellite Type and Status

DEBRISIN ORBIT

Key statistics

Satellite FENGYUN 1C DEB at a glance.

Uptime

9495

Days in orbit

Revolutions

≈ 13.9

Per day

Orbit

SSO

Sun Synchronous Orbit

Inclination

99.5

Latest

Satellite identification and parameters

Extended collection of information and parameters for FENGYUN 1C DEB.

Object identification

Identified? True

Debris? True

Object name: FENGYUN 1C DEB

International designator: 1999-025TD

Object number (NORAD): 30148

Object ID (CCSDS): 30148

Country: PEOPLES REPUBLIC OF CHINA (PRC)

Current information (Y/N): Y

RCS size: SMALL

Orbital parameters

Period: 103.74 minutes

Inclination: 99.5262 deg

SMA: 7313.498 km

Apoapsis: 1034.071 km

Periapsis: 836.655 km

RAAN: 271.8647 deg

Eccentricy: 0.0134967

Argument of periapsis: 61.8937 deg

Mean anomaly: 325.1569 deg

Mean motion: 13.88081657 rev/day

Mean motion (dot): 0.00000881 rev/day2

B* drag term: 0.00072283 1/REarth

Two-line elements (TLE)

Creation date: May 8, 2025, 3:01 a.m.

Reference frame: TEME

Reference center: EARTH

Epoch: May 7, 2025, 9:07 a.m. UTC

TLE line 0: 0 FENGYUN 1C DEB

TLE line 1: 1 30148U 99025TD 25127.38004187 .00000881 00000-0 72283-3 0 9991

TLE line 2: 2 30148 99.5262 271.8647 0134967 61.8937 325.1569 13.88081657924733

Live tracking on map

Real-time ground track for satellite FENGYUN 1C DEB.

In-orbit conjunctions

A list of the most updated potential collisions computed for object FENGYUN 1C DEB.

Target Orbit TCA Probability of collision Miss distance Type
CZ-6A DEB LEO 2025-01-26 22:18:31 0.0001220761 395.0 (m) DEBRIS
COSMOS 2251 DEB LEO 2024-11-08 19:54:32 0.00119546 255.0 (m) DEBRIS
INFORMATOR 1 LEO 2024-11-03 19:42:27 0.0001857417 376.0 (m) PAYLOAD

Associated space launch

Chinese polar orbiting meteorological satellite

FENGYUN 1C DEB was lifted into orbit during the mission ‘Long March 4B | Feng Yun 1C’, on board a Long March 4B space rocket.

The launch took place on May 10, 1999, 1:33 a.m. from Launch Complex 7.

For more information about the launch, click the button.

Launch to space Long March 4B | Feng Yun 1C
Long March 4B | Feng Yun 1C

Agency: N/A

Status: Launch Successful

Launch date: May 10, 1999, 1:33 a.m. UTC

Rocket: Long March 4B

Launch pad: Launch Complex 7

Location: Taiyuan Satellite Launch Center, People's Republic of China

...

Latest news about this satellite

There are no fresh news available about this satellite. Check back as we update our databases every day.


Newsletter sign-up

Weekly statistics, charts and insights to help you stay on top of the space industry.